Time,TemperatureF,DewpointF,PressureIn,WindDirection,WindDirectionDegrees,WindSpeedMPH,WindSpeedGustMPH,Humidity,HourlyPrecipIn,Conditions,Clouds,dailyrainin,SoftwareType,DateUTC
2013-10-03 00:14:00,62.0,59.0,30.03,North,359,0.0,0.0,90,0.00,,,-99.99,,2013-10-03 04:14:00,
2013-10-03 00:24:00,62.0,59.0,30.03,North,359,0.0,0.0,89,0.00,,,-99.99,,2013-10-03 04:24:00,
2013-10-03 00:40:00,61.0,58.0,30.04,North,359,0.0,0.0,90,0.00,,,-99.99,,2013-10-03 04:40:00,
2013-10-03 00:44:00,61.0,58.0,30.04,North,359,0.0,0.0,89,0.00,,,-99.99,,2013-10-03 04:44:00,
2013-10-03 00:53:00,61.0,58.0,30.04,North,359,0.0,0.0,90,0.00,,,-99.99,,2013-10-03 04:53:00,
2013-10-03 01:13:00,61.0,58.0,30.04,North,359,0.0,0.0,90,0.00,,,-99.99,,2013-10-03 05:13:00,
2013-10-03 01:23:00,61.0,58.0,30.04,North,359,0.0,0.0,90,0.00,,,-99.99,,2013-10-03 05:23:00,
2013-10-03 01:33:00,61.0,58.0,30.04,North,359,0.0,0.0,90,0.00,,,-99.99,,2013-10-03 05:33:00,
2013-10-03 01:52:00,60.0,58.0,30.05,North,359,0.0,0.0,92,0.00,,,-99.99,,2013-10-03 05:52:00,
2013-10-03 02:12:00,60.0,58.0,30.05,North,359,0.0,0.0,92,0.00,,,-99.99,,2013-10-03 06:12:00,
2013-10-03 02:22:00,59.0,56.0,30.06,North,359,0.0,0.0,91,0.00,,,-99.99,,2013-10-03 06:22:00,
2013-10-03 02:32:00,59.0,56.0,30.06,North,359,0.0,0.0,91,0.00,,,-99.99,,2013-10-03 06:32:00,
2013-10-03 02:42:00,59.0,56.0,30.06,North,359,0.0,0.0,91,0.00,,,-99.99,,2013-10-03 06:42:00,
2013-10-03 02:52:00,59.0,57.0,30.06,North,359,0.0,0.0,92,0.00,,,-99.99,,2013-10-03 06:52:00,
2013-10-03 03:11:00,59.0,57.0,30.06,North,359,0.0,0.0,92,0.00,,,-99.99,,2013-10-03 07:11:00,
2013-10-03 03:22:00,59.0,57.0,30.06,North,359,0.0,0.0,92,0.00,,,-99.99,,2013-10-03 07:22:00,
2013-10-03 03:52:00,58.0,56.0,30.06,North,359,0.0,0.0,92,0.00,,,-99.99,,2013-10-03 07:52:00,
2013-10-03 04:12:00,58.0,56.0,30.07,North,359,0.0,0.0,92,0.00,,,-99.99,,2013-10-03 08:12:00,
2013-10-03 04:22:00,58.0,56.0,30.07,North,359,0.0,0.0,92,0.00,,,-99.99,,2013-10-03 08:22:00,
2013-10-03 04:42:00,58.0,55.0,30.06,North,359,0.0,0.0,91,0.00,,,-99.99,,2013-10-03 08:42:00,
2013-10-03 04:52:00,58.0,55.0,30.08,North,359,0.0,0.0,91,0.00,,,-99.99,,2013-10-03 08:52:00,
2013-10-03 05:12:00,57.0,55.0,30.08,North,359,0.0,0.0,92,0.00,,,-99.99,,2013-10-03 09:12:00,
2013-10-03 05:22:00,57.0,55.0,30.08,North,359,0.0,0.0,92,0.00,,,-99.99,,2013-10-03 09:22:00,
2013-10-03 05:43:00,57.0,55.0,30.08,North,359,0.0,0.0,93,0.00,,,-99.99,,2013-10-03 09:43:00,
2013-10-03 05:53:00,56.0,54.0,30.09,North,359,0.0,0.0,94,0.00,,,-99.99,,2013-10-03 09:53:00,
2013-10-03 06:13:00,56.0,54.0,30.09,North,359,0.0,0.0,94,0.00,,,-99.99,,2013-10-03 10:13:00,
2013-10-03 06:23:00,56.0,54.0,30.10,North,359,0.0,0.0,94,0.00,,,-99.99,,2013-10-03 10:23:00,
2013-10-03 06:43:00,55.0,53.0,30.10,North,359,0.0,0.0,94,0.00,,,-99.99,,2013-10-03 10:43:00,
2013-10-03 06:52:00,55.0,53.0,30.11,North,359,0.0,0.0,94,0.00,,,-99.99,,2013-10-03 10:52:00,
2013-10-03 07:12:00,55.0,54.0,30.11,North,359,0.0,0.0,95,0.00,,,-99.99,,2013-10-03 11:12:00,
2013-10-03 07:23:00,54.0,53.0,30.11,North,359,0.0,0.0,95,0.00,,,-99.99,,2013-10-03 11:23:00,
2013-10-03 07:42:00,54.0,53.0,30.11,North,359,0.0,0.0,95,0.00,,,-99.99,,2013-10-03 11:42:00,
2013-10-03 07:52:00,54.0,53.0,30.11,North,359,0.0,0.0,96,0.00,,,-99.99,,2013-10-03 11:52:00,
2013-10-03 08:12:00,54.0,53.0,30.11,North,359,0.0,0.0,96,0.00,,,-99.99,,2013-10-03 12:12:00,
2013-10-03 08:22:00,55.0,54.0,30.12,North,359,0.0,0.0,96,0.00,,,-99.99,,2013-10-03 12:22:00,
2013-10-03 08:42:00,56.0,55.0,30.13,North,359,0.0,0.0,96,0.00,,,-99.99,,2013-10-03 12:42:00,
2013-10-03 08:52:00,57.0,56.0,30.13,North,359,0.0,0.0,96,0.00,,,-99.99,,2013-10-03 12:52:00,
2013-10-03 09:11:00,58.0,57.0,30.13,North,359,0.0,0.0,96,0.00,,,-99.99,,2013-10-03 13:11:00,
2013-10-03 09:22:00,60.0,58.0,30.14,North,359,0.0,0.0,94,0.00,,,-99.99,,2013-10-03 13:22:00,
2013-10-03 09:42:00,61.0,58.0,30.14,North,359,0.0,0.0,91,0.00,,,-99.99,,2013-10-03 13:42:00,
2013-10-03 09:52:00,63.0,59.0,30.14,North,359,0.0,0.0,86,0.00,,,0.00,,2013-10-03 13:52:00,
2013-10-03 10:11:00,64.0,59.0,30.14,North,359,0.0,0.0,83,0.00,,,0.00,,2013-10-03 14:11:00,
2013-10-03 10:22:00,66.0,59.0,30.14,North,359,0.0,0.0,78,0.00,,,0.00,,2013-10-03 14:22:00,
2013-10-03 10:42:00,66.0,58.0,30.14,North,359,0.0,0.0,75,0.00,,,0.00,,2013-10-03 14:42:00,
2013-10-03 10:52:00,68.0,58.0,30.14,North,359,0.0,0.0,70,0.00,,,0.00,,2013-10-03 14:52:00,
2013-10-03 11:11:00,70.0,59.0,30.14,North,359,0.0,0.0,69,0.00,,,0.00,,2013-10-03 15:11:00,
2013-10-03 11:22:00,72.0,58.0,30.13,North,359,0.0,0.0,62,0.00,,,0.00,,2013-10-03 15:22:00,
2013-10-03 11:43:00,73.0,58.0,30.13,North,359,0.0,0.0,59,0.00,,,0.00,,2013-10-03 15:43:00,
2013-10-03 11:54:00,74.0,57.0,30.12,North,359,0.0,0.0,56,0.00,,,0.00,,2013-10-03 15:54:00,
2013-10-03 12:13:00,75.0,57.0,30.12,North,359,0.0,0.0,53,0.00,,,0.00,,2013-10-03 16:13:00,
2013-10-03 12:23:00,75.0,56.0,30.11,North,359,0.0,0.0,52,0.00,,,0.00,,2013-10-03 16:23:00,
2013-10-03 12:42:00,75.0,54.0,30.11,North,359,0.0,0.0,48,0.00,,,0.00,,2013-10-03 16:42:00,
2013-10-03 12:53:00,76.0,55.0,30.11,North,359,0.0,0.0,48,0.00,,,0.00,,2013-10-03 16:53:00,
2013-10-03 13:12:00,76.0,55.0,30.10,North,359,0.0,0.0,48,0.00,,,0.00,,2013-10-03 17:12:00,
2013-10-03 13:22:00,77.0,56.0,30.10,North,359,0.0,0.0,48,0.00,,,0.00,,2013-10-03 17:22:00,
2013-10-03 13:42:00,76.0,55.0,30.09,North,359,0.0,0.0,49,0.00,,,0.00,,2013-10-03 17:42:00,
2013-10-03 13:52:00,76.0,51.0,30.09,North,359,0.0,0.0,41,0.00,,,0.00,,2013-10-03 17:52:00,
2013-10-03 14:12:00,76.0,49.0,30.08,North,359,0.0,0.0,39,0.00,,,0.00,,2013-10-03 18:12:00,
2013-10-03 14:52:00,78.0,50.0,30.07,North,359,0.0,0.0,38,0.00,,,0.00,,2013-10-03 18:52:00,
2013-10-03 15:11:00,78.0,53.0,30.07,North,359,0.0,0.0,42,0.00,,,0.00,,2013-10-03 19:11:00,
2013-10-03 15:22:00,78.0,56.0,30.06,North,359,0.0,0.0,47,0.00,,,0.00,,2013-10-03 19:22:00,
2013-10-03 15:42:00,78.0,55.0,30.06,North,359,0.0,0.0,45,0.00,,,0.00,,2013-10-03 19:42:00,
2013-10-03 15:53:00,79.0,55.0,30.06,North,359,0.0,0.0,44,0.00,,,0.00,,2013-10-03 19:53:00,
2013-10-03 16:12:00,78.0,55.0,30.05,North,359,0.0,0.0,45,0.00,,,0.00,,2013-10-03 20:12:00,
2013-10-03 16:22:00,77.0,55.0,30.05,North,359,0.0,0.0,47,0.00,,,0.00,,2013-10-03 20:22:00,
2013-10-03 16:42:00,77.0,55.0,30.05,North,359,0.0,0.0,46,0.00,,,0.00,,2013-10-03 20:42:00,
2013-10-03 16:52:00,76.0,54.0,30.05,North,359,0.0,0.0,47,0.00,,,0.00,,2013-10-03 20:52:00,
2013-10-03 17:12:00,75.0,54.0,30.05,North,359,0.0,0.0,48,0.00,,,0.00,,2013-10-03 21:12:00,
2013-10-03 17:22:00,75.0,55.0,30.05,North,359,0.0,0.0,50,0.00,,,0.00,,2013-10-03 21:22:00,
2013-10-03 17:43:00,75.0,57.0,30.05,North,359,0.0,0.0,53,0.00,,,0.00,,2013-10-03 21:43:00,
2013-10-03 17:54:00,74.0,57.0,30.06,North,359,0.0,0.0,56,0.00,,,0.00,,2013-10-03 21:54:00,
2013-10-03 18:13:00,73.0,57.0,30.06,North,359,0.0,0.0,57,0.00,,,0.00,,2013-10-03 22:13:00,
2013-10-03 18:23:00,72.0,58.0,30.06,North,359,0.0,0.0,61,0.00,,,0.00,,2013-10-03 22:23:00,
2013-10-03 18:43:00,72.0,58.0,30.06,North,359,0.0,0.0,62,0.00,,,0.00,,2013-10-03 22:43:00,
2013-10-03 18:54:00,71.0,59.0,30.06,North,359,0.0,0.0,66,0.00,,,0.00,,2013-10-03 22:54:00,
2013-10-03 19:12:00,70.0,59.0,30.06,North,359,0.0,0.0,67,0.00,,,0.00,,2013-10-03 23:12:00,
2013-10-03 19:22:00,69.0,59.0,30.07,North,359,0.0,0.0,70,0.00,,,0.00,,2013-10-03 23:22:00,
2013-10-03 19:43:00,68.0,58.0,30.07,North,359,0.0,0.0,71,0.00,,,0.00,,2013-10-03 23:43:00,
2013-10-03 19:53:00,67.0,58.0,30.06,North,359,0.0,0.0,74,0.00,,,0.00,,2013-10-03 23:53:00,
2013-10-03 20:12:00,67.0,59.0,30.06,North,359,0.0,0.0,75,0.00,,,0.00,,2013-10-04 00:12:00,
2013-10-03 20:22:00,67.0,60.0,30.07,North,359,0.0,0.0,77,0.00,,,0.00,,2013-10-04 00:22:00,
2013-10-03 20:42:00,66.0,59.0,30.07,North,359,0.0,0.0,77,0.00,,,0.00,,2013-10-04 00:42:00,
2013-10-03 20:52:00,65.0,58.0,30.07,North,359,0.0,0.0,79,0.00,,,0.00,,2013-10-04 00:52:00,
2013-10-03 21:12:00,65.0,59.0,30.07,North,359,0.0,0.0,80,0.00,,,0.00,,2013-10-04 01:12:00,
2013-10-03 21:22:00,64.0,58.0,30.07,North,359,0.0,0.0,81,0.00,,,0.00,,2013-10-04 01:22:00,
2013-10-03 21:42:00,64.0,58.0,30.07,North,359,0.0,0.0,82,0.00,,,0.00,,2013-10-04 01:42:00,
2013-10-03 21:52:00,64.0,59.0,30.08,North,359,0.0,0.0,84,0.00,,,0.00,,2013-10-04 01:52:00,
2013-10-03 22:12:00,63.0,58.0,30.08,North,359,0.0,0.0,85,0.00,,,0.00,,2013-10-04 02:12:00,
2013-10-03 22:22:00,63.0,58.0,30.08,North,359,0.0,0.0,85,0.00,,,0.00,,2013-10-04 02:22:00,
2013-10-03 22:43:00,63.0,59.0,30.09,North,359,0.0,0.0,86,0.00,,,0.00,,2013-10-04 02:43:00,
2013-10-03 22:52:00,62.0,58.0,30.09,North,359,0.0,0.0,87,0.00,,,0.00,,2013-10-04 02:52:00,
2013-10-03 23:12:00,62.0,58.0,30.09,North,359,0.0,0.0,87,0.00,,,0.00,,2013-10-04 03:12:00,
2013-10-03 23:22:00,62.0,58.0,30.09,North,359,0.0,0.0,88,0.00,,,0.00,,2013-10-04 03:22:00,
2013-10-03 23:44:00,61.0,58.0,30.09,North,359,0.0,0.0,89,0.00,,,0.00,,2013-10-04 03:44:00,